Location: Oshawa
(43.9000°N, 78.8670°W)
Time: 07:31:40
(UTC-04:00)

Cosmos 1408 Rocket - Visible Passes

Search period start: 26 April 2015 00:00
Search period end: 06 May 2015 00:00
Orbit: 601 x 633 km, 82.6° (Epoch: 25 April)

Date Brightness Start Highest point End Pass type
(mag) Time Alt. Az. Time Alt. Az. Time Alt. Az.
26 Apr 6.0 02:25:18 14° E 02:25:18 14° E 02:27:41 10° NE visible
26 Apr 3.7 04:02:25 51° W 04:02:44 53° WNW 04:07:01 10° N visible
27 Apr 5.3 02:42:02 25° E 02:42:02 25° E 02:45:25 10° NE visible
27 Apr 4.5 04:19:09 29° W 04:19:36 29° WNW 04:23:23 10° NNW visible
28 Apr 4.4 02:58:45 43° E 02:58:45 43° E 03:02:35 10° NNE visible
28 Apr 5.2 04:35:52 17° W 04:36:34 17° WNW 04:39:23 10° NNW visible
29 Apr 3.6 03:15:27 74° NNE 03:15:27 74° NNE 03:19:26 10° N visible
30 Apr 6.1 01:55:01 14° ENE 01:55:01 14° ENE 01:56:42 10° NE visible
30 Apr 3.9 03:32:07 52° WNW 03:32:07 52° WNW 03:36:05 10° N visible
01 May 5.5 02:11:40 23° ENE 02:11:40 23° ENE 02:14:28 10° NE visible
01 May 4.6 03:48:47 29° WNW 03:48:47 29° WNW 03:52:28 10° NNW visible
02 May 4.7 02:28:19 39° ENE 02:28:19 39° ENE 02:31:38 10° NNE visible
02 May 5.3 04:05:26 17° WNW 04:05:38 17° WNW 04:08:27 10° NNW visible
03 May 4.0 02:44:57 58° NNE 02:44:57 58° NNE 02:48:29 10° N visible
04 May 6.1 01:24:28 13° ENE 01:24:28 13° ENE 01:25:43 10° NE visible
04 May 4.1 03:01:34 47° NW 03:01:34 47° NW 03:05:08 10° N visible
05 May 5.5 01:41:04 22° ENE 01:41:04 22° ENE 01:43:29 10° NE visible
05 May 4.8 03:18:11 29° WNW 03:18:11 29° WNW 03:21:30 10° NNW visible
